Theta_e
337 338 337 336 333 332 332 336 334 323 323 331 331 332 333 333 333 332 333 332 331 329 328 328 327 324 320 320 319 319 319 318 318 317 317 319 319 321 324 329 332 332 333 331 327 327 329 330 329 327 327 327 327 327 325 326 327 326 325 322 320 319
337 338 337 336 334 333 334 336 331 322 326 333 332 333 332 332 333 332 332 331 330 329 326 325 326 324 321 320 320 320 320 319 320 319 318 317 318 318 320 323 326 329 332 333 329 328 330 331 331 329 329 329 329 328 326 326 327 328 327 324 322 320
336 337 337 335 334 333 335 335 327 320 328 334 333 333 332 331 332 332 331 330 330 328 326 326 327 326 322 321 321 321 321 320 320 320 320 319 318 317 318 319 320 322 327 331 330 328 330 332 332 332 331 330 330 328 327 326 327 328 327 325 324 322
336 337 336 335 334 333 335 333 324 321 329 333 333 333 332 332 332 331 330 329 329 327 326 327 327 326 324 322 321 322 321 321 321 320 321 320 319 318 317 317 317 318 321 327 330 330 331 332 333 333 332 331 330 329 327 327 328 329 328 327 327 324
336 337 336 335 333 333 335 330 321 323 330 332 332 333 332 332 331 328 328 327 327 326 326 326 326 326 325 323 322 322 322 321 321 321 321 320 320 320 318 316 316 317 318 321 326 330 331 332 333 334 333 332 330 329 328 327 328 329 329 329 328 326
335 336 335 335 333 334 335 328 321 325 331 332 333 332 331 330 328 326 325 326 327 325 325 327 327 326 325 324 323 322 322 322 321 320 320 320 320 320 319 317 317 317 317 318 321 326 330 332 333 334 333 332 330 329 329 329 329 330 329 330 330 328
333 335 335 334 333 334 335 326 322 328 332 332 333 331 330 328 326 325 325 326 326 325 325 327 327 326 326 324 323 322 323 322 322 321 320 320 320 320 319 319 319 318 318 319 319 323 327 329 332 334 333 331 330 330 330 330 330 330 330 330 330 329
332 334 334 334 333 335 334 326 323 330 332 332 333 331 329 327 324 324 325 326 326 325 325 326 327 326 326 325 324 324 326 325 324 325 323 321 321 322 321 321 322 321 322 322 321 322 323 326 331 333 333 331 329 330 330 330 331 331 331 331 330 328
332 332 333 333 333 335 333 326 323 329 332 332 332 331 330 326 323 323 325 326 326 325 325 325 326 327 327 327 327 327 329 328 327 327 327 326 325 324 324 324 324 323 324 325 324 324 324 326 331 333 333 331 330 330 329 330 331 331 332 331 329 327
332 332 332 332 333 333 331 325 323 328 331 332 332 331 330 326 323 323 325 327 326 325 326 325 326 327 327 327 327 328 329 328 328 327 327 328 328 327 327 326 326 325 326 326 326 326 326 328 331 333 333 332 331 329 328 329 330 331 331 330 328 326
332 332 332 332 332 331 329 324 323 327 330 332 332 330 329 326 323 323 326 328 326 325 325 325 326 327 327 327 326 326 327 327 327 327 327 328 328 327 327 327 327 327 327 327 327 327 327 327 329 330 331 330 330 328 328 329 330 331 330 329 328 326
332 332 332 332 331 330 328 325 322 326 330 331 331 329 328 326 323 323 325 327 326 324 324 324 326 327 327 326 325 325 326 326 325 327 327 327 327 327 327 327 328 328 327 327 327 327 328 327 328 328 329 329 329 329 330 330 330 330 330 329 328 326
333 332 332 332 332 330 328 326 323 325 330 331 331 329 327 325 323 323 325 326 325 324 325 325 326 327 326 325 325 324 325 326 326 326 327 327 327 328 328 327 327 327 327 327 327 328 328 328 328 328 328 329 329 329 331 331 330 329 329 329 326 324
334 333 332 333 333 331 330 328 325 326 329 331 331 329 327 325 323 323 324 325 325 326 326 327 326 326 326 325 325 324 325 326 326 326 327 327 328 328 328 327 326 326 326 328 328 328 328 328 328 328 327 327 328 329 330 331 329 328 328 327 325 324
334 334 333 334 333 332 332 330 328 328 330 332 331 329 327 326 324 324 325 325 326 327 327 327 327 326 326 326 326 325 324 325 325 326 326 327 328 327 327 327 326 325 325 327 328 327 328 328 327 327 327 326 327 328 330 330 329 329 328 325 324 324
334 334 334 334 333 332 332 331 330 330 331 332 330 329 327 326 325 325 326 327 328 328 327 327 327 327 326 326 326 326 325 326 325 326 326 326 327 327 327 327 326 325 326 326 326 327 327 328 327 327 326 326 327 328 330 329 329 330 328 326 325 323
335 334 334 334 333 332 332 332 331 331 331 331 331 329 327 326 326 326 326 327 328 328 328 328 328 328 328 327 327 328 327 326 326 326 326 326 326 326 326 326 325 325 325 325 326 326 327 327 327 327 326 326 328 329 330 330 330 329 328 327 327 324
335 334 334 334 333 332 332 332 332 331 331 330 330 329 326 326 327 327 327 328 328 328 328 328 328 328 328 328 328 328 328 327 327 327 327 326 326 326 326 325 324 325 325 326 326 326 327 327 327 326 326 327 328 329 329 329 330 329 327 327 327 325
336 335 334 334 333 333 333 332 331 330 330 329 329 328 326 326 327 327 327 327 328 328 328 329 329 328 328 329 329 328 328 327 327 327 326 326 326 326 326 324 324 325 325 326 327 327 327 327 327 326 326 327 328 330 329 328 329 328 327 327 327 326
336 335 335 334 333 332 332 330 330 329 329 329 328 327 327 327 327 328 328 328 328 328 328 329 329 329 329 329 329 328 328 327 327 327 327 327 326 326 326 325 325 326 326 327 327 327 327 327 327 326 326 326 327 329 328 327 328 328 327 327 327 326
334 334 334 333 333 331 330 330 328 328 329 329 328 327 327 328 328 328 329 328 328 328 328 329 328 328 328 329 329 328 328 328 328 328 328 327 326 326 326 325 325 326 327 327 327 327 327 326 326 326 326 326 327 328 327 327 328 328 327 327 327 326
333 332 332 331 330 330 330 329 328 328 329 328 327 328 328 328 329 329 328 327 327 328 328 327 326 326 327 328 329 328 328 328 328 328 328 326 326 326 326 325 325 325 327 327 327 327 327 326 326 327 326 326 327 327 327 327 327 328 327 327 327 326
332 331 330 329 329 330 329 329 328 328 328 327 328 329 329 329 329 328 327 327 327 326 326 325 325 325 326 326 328 328 328 327 327 327 326 326 326 326 326 326 325 325 327 327 328 328 327 327 327 326 327 326 326 327 328 327 327 328 327 328 327 326
332 330 329 329 329 330 329 329 329 328 328 328 329 329 330 329 328 326 326 327 327 326 326 325 325 326 325 326 327 327 326 326 326 326 325 325 325 325 325 326 325 325 327 327 327 328 328 328 327 327 326 325 325 326 328 327 327 327 327 327 327 326
331 330 329 329 330 330 330 329 329 329 329 329 330 329 329 326 325 325 327 327 326 326 326 326 325 326 326 327 326 325 325 325 325 324 325 324 324 322 323 325 326 325 326 327 327 328 328 328 327 327 326 325 325 326 326 326 326 327 327 326 326 326
330 329 329 330 331 330 329 329 328 329 329 328 329 328 326 324 323 324 326 326 326 326 326 326 325 326 326 326 325 325 325 325 325 325 325 325 324 323 323 325 326 325 326 327 327 328 328 328 328 327 326 325 325 325 325 324 325 326 326 326 326 326
330 329 330 330 330 329 328 328 329 328 328 328 328 326 324 324 323 325 326 326 326 326 326 326 326 325 325 325 325 325 325 325 326 326 326 326 325 324 324 326 326 325 326 326 326 327 328 328 328 327 327 326 325 325 325 324 324 325 326 326 326 325
330 330 331 330 329 328 326 327 329 329 328 328 328 324 323 324 323 324 326 326 325 325 325 325 326 326 325 324 324 325 325 325 326 325 326 326 326 325 325 326 326 325 325 325 325 326 327 327 327 327 327 326 326 325 325 325 325 325 325 326 326 325
332 332 331 330 328 327 327 327 329 329 328 328 327 325 324 325 324 323 324 324 323 322 322 322 323 323 323 323 322 323 324 324 325 325 325 325 326 326 325 326 326 325 325 324 324 324 325 327 326 326 326 326 326 325 324 325 325 325 324 325 325 325
332 333 332 330 328 327 328 329 329 329 328 328 327 326 326 325 324 322 322 322 321 320 318 318 318 318 317 316 315 317 319 321 324 325 325 325 325 325 325 325 326 326 325 324 324 323 323 325 325 325 325 325 325 325 324 325 325 325 324 323 323 324
332 333 332 331 329 329 329 330 330 328 327 326 326 326 325 323 322 322 321 321 319 318 317 317 317 316 315 311 310 313 317 319 322 323 324 325 325 325 325 325 325 324 325 325 324 324 323 323 323 324 325 325 325 325 324 324 325 324 324 323 323 324
331 331 332 331 330 329 329 330 329 327 326 326 325 325 322 319 320 319 318 317 316 316 317 318 318 318 316 314 312 315 318 318 319 321 322 322 324 325 325 324 324 322 323 323 323 324 323 323 323 324 324 325 326 325 325 325 325 324 324 323 322 324
330 331 332 332 329 328 328 329 328 326 326 326 326 324 321 317 316 315 313 314 314 315 317 318 320 319 318 317 316 318 320 320 320 321 321 320 321 324 325 324 323 322 323 323 323 323 324 324 325 324 324 325 325 325 325 325 326 325 324 323 323 323
331 331 333 331 328 326 327 328 327 325 326 326 327 326 323 318 313 311 312 312 313 316 318 319 320 320 319 319 319 319 320 321 322 322 322 320 319 323 324 324 323 322 322 323 323 323 324 324 325 325 325 325 325 325 325 325 325 325 324 324 323 322
332 331 333 332 329 327 328 327 325 326 327 327 327 327 324 316 312 312 313 313 316 318 320 320 320 319 320 320 320 320 320 321 322 322 322 321 320 322 323 322 322 321 321 321 322 322 323 323 324 325 325 325 325 325 325 325 325 325 324 324 323 322
331 331 333 332 330 329 329 327 327 329 329 328 328 327 322 315 314 315 315 315 317 319 320 320 319 318 319 320 320 321 322 321 322 323 322 321 319 320 321 321 320 320 320 321 321 322 322 323 324 325 325 325 325 326 325 325 325 325 324 324 323 322
330 331 332 329 328 328 327 328 330 330 329 329 328 325 319 316 316 315 314 315 317 320 321 321 321 320 319 318 318 320 322 321 321 321 321 320 318 317 318 319 318 318 320 321 321 322 322 323 323 324 325 325 325 325 325 325 325 324 323 323 323 322
Wind_Speed
25 24 23 23 21 20 17 16 14 14 15 15 16 15 15 15 14 14 13 13 13 12 12 11 11 11 11 12 11 11 11 11 11 12 15 17 20 22 22 22 22 20 19 18 16 14 12 10 8 6 6 7 8 7 8 9 9 10 11 11 11 11
25 24 24 23 22 21 19 17 15 16 17 16 16 16 15 15 14 13 12 13 12 11 11 11 11 11 11 11 11 11 10 10 10 11 12 14 16 19 21 22 22 21 20 19 17 16 14 11 9 8 7 7 7 7 7 8 8 8 9 10 10 10
25 25 24 23 23 21 19 18 16 17 18 16 16 15 14 14 14 13 13 12 12 11 11 11 11 10 10 10 10 9 9 8 8 9 9 11 12 15 17 19 20 20 21 20 19 17 16 13 10 9 8 7 7 7 7 7 8 8 9 9 9 10
25 25 25 24 23 22 19 17 17 17 17 16 15 14 13 13 14 13 12 12 11 11 11 11 11 10 9 8 8 7 7 6 6 6 7 7 8 10 13 16 18 19 21 21 21 19 18 15 12 10 8 8 8 7 7 6 7 8 8 8 9 9
25 26 26 24 23 22 19 18 17 18 16 16 15 14 13 13 13 12 12 12 11 10 10 10 10 9 8 7 6 6 6 5 5 5 5 6 6 7 9 11 13 17 19 22 22 21 20 16 13 11 9 9 7 7 6 6 6 7 6 7 7 8
25 26 26 24 23 21 19 18 18 18 16 15 14 13 13 12 12 11 11 11 10 10 9 9 9 9 9 7 6 6 5 5 3 3 4 5 5 5 7 8 10 13 17 20 21 21 20 18 14 12 10 9 8 7 6 6 6 6 5 5 6 7
25 26 25 24 23 21 19 18 18 17 16 15 13 12 12 11 12 12 12 11 10 9 9 10 10 9 9 8 6 6 5 4 3 2 3 4 4 5 6 8 9 12 14 17 18 19 19 19 16 13 11 10 8 7 6 5 6 5 4 5 5 6
23 24 24 24 23 21 19 18 18 17 15 14 12 11 11 11 12 12 12 11 11 9 10 10 10 9 9 8 7 7 6 5 5 3 4 4 5 5 6 8 10 11 13 13 14 16 18 18 17 14 12 10 9 7 6 5 5 5 4 4 4 5
22 23 23 24 23 20 18 18 18 17 15 14 11 11 11 11 13 13 12 11 11 10 10 10 9 8 9 9 8 8 7 6 6 4 4 5 5 5 6 8 9 10 11 11 11 12 14 16 16 14 12 10 8 6 4 4 5 4 3 3 3 3
22 22 22 23 22 20 18 18 18 16 15 14 11 12 12 12 12 12 11 11 11 10 10 9 8 8 9 9 8 8 8 7 6 6 5 5 5 5 6 7 8 10 10 10 9 10 10 12 14 14 12 10 8 6 5 4 4 3 3 3 3 2
23 23 22 22 21 20 18 17 17 16 14 13 12 12 12 12 12 12 11 11 10 9 10 9 9 8 8 8 7 7 7 7 7 7 7 6 6 5 6 7 8 9 10 9 9 9 9 10 11 12 12 10 9 7 5 5 4 4 4 3 2 2
24 23 22 21 20 19 17 17 17 16 14 13 12 12 12 12 13 12 11 11 9 9 9 9 8 8 7 6 5 6 6 7 7 7 7 7 7 5 4 6 7 8 9 10 9 9 9 9 10 11 10 9 8 7 6 6 6 6 6 4 3 2
24 23 22 20 19 18 17 17 16 15 14 13 13 12 12 12 13 12 11 10 9 9 8 8 7 7 6 5 4 4 5 6 6 7 7 7 7 5 4 4 6 7 8 10 10 9 9 9 9 9 8 7 7 6 7 7 8 8 7 5 4 4
24 23 22 20 19 18 17 17 16 15 14 13 13 12 12 12 13 13 11 10 9 8 7 7 7 7 6 5 4 3 4 5 6 6 6 7 6 5 4 4 6 7 7 9 9 9 9 8 8 7 6 6 6 6 7 8 7 8 8 6 6 5
24 23 22 20 19 18 17 17 16 16 15 14 13 12 12 13 13 12 11 9 8 8 7 6 6 6 6 5 4 3 4 4 5 6 7 7 7 5 4 5 6 6 7 8 8 8 9 8 8 7 6 5 6 7 9 8 7 8 8 7 7 6
23 24 23 20 19 19 17 16 16 16 15 14 13 12 12 13 13 12 10 8 7 7 6 6 5 5 6 6 5 4 4 4 4 5 6 8 8 6 5 6 7 7 6 7 8 8 9 9 8 7 6 5 6 9 9 8 7 7 7 8 8 7
23 24 22 20 20 19 17 17 17 17 16 15 14 12 11 13 13 11 9 7 6 5 6 6 6 6 6 6 6 5 5 5 5 5 6 7 8 7 7 7 7 8 7 6 7 8 8 9 8 7 6 5 7 9 9 8 8 7 8 9 8 8
23 23 22 20 21 19 18 18 18 17 16 15 15 12 11 12 12 10 8 6 6 5 6 6 6 6 6 6 6 6 6 6 6 6 6 7 7 8 8 8 7 8 8 7 7 7 8 9 9 7 6 6 8 9 9 8 6 7 9 9 10 10
22 23 22 21 21 20 20 20 19 19 17 15 15 13 12 11 11 9 8 7 6 6 7 6 6 6 7 6 6 6 6 7 7 6 6 7 7 8 8 8 8 8 8 8 7 7 8 9 9 8 7 8 9 9 8 7 6 7 8 9 12 11
22 22 23 23 23 22 22 21 21 20 18 16 15 13 12 10 10 9 8 8 7 8 8 7 6 7 7 6 7 7 7 7 7 6 7 6 7 8 8 8 8 8 9 9 9 8 8 9 9 8 9 9 9 9 8 6 6 7 7 9 12 11
22 22 24 25 24 23 23 23 22 21 19 16 15 14 12 10 9 9 9 8 8 8 7 7 7 7 6 6 7 7 7 8 8 8 8 7 8 9 8 8 9 9 9 9 9 10 10 9 9 9 10 10 10 9 7 6 6 8 8 9 10 10
22 23 25 24 23 22 22 21 20 19 17 15 14 13 11 10 9 9 9 8 8 8 8 7 7 6 6 6 7 7 8 9 9 9 9 8 9 9 9 9 10 10 10 10 9 11 11 11 10 9 9 10 11 9 8 7 8 8 9 9 9 9
23 24 25 24 22 21 20 19 17 15 15 14 13 12 10 10 10 10 9 8 7 7 7 7 6 6 6 7 7 7 8 8 9 9 8 8 9 9 9 10 10 9 10 10 10 11 12 12 11 9 9 9 11 11 10 9 10 8 7 8 9 10
22 23 25 24 22 19 18 17 15 14 14 13 12 12 12 11 11 10 9 8 7 7 7 6 6 6 7 7 7 8 7 7 8 8 8 8 8 8 9 10 11 10 10 10 11 12 13 12 10 9 9 8 10 12 11 10 10 8 5 4 7 10
23 24 24 24 22 20 18 18 17 16 16 15 14 14 14 14 12 11 10 9 8 8 7 7 6 7 7 7 8 8 7 7 8 8 9 9 8 8 9 11 11 10 10 9 9 11 12 12 10 10 9 6 7 9 10 11 10 7 3 2 7 8
23 25 25 24 22 20 19 19 18 18 18 17 17 16 14 13 13 12 11 9 9 8 8 7 7 7 7 8 8 7 7 7 8 8 9 9 9 8 9 11 11 10 10 10 9 10 11 12 12 11 11 7 4 4 6 9 10 9 7 6 8 9
25 26 25 24 22 21 20 19 18 17 17 17 17 16 14 13 13 13 12 10 9 8 7 7 6 6 6 7 7 7 7 8 8 8 8 9 9 9 9 10 11 10 10 11 11 11 11 12 13 12 12 10 5 3 2 3 6 11 12 11 10 9
26 26 25 24 23 21 20 19 17 17 17 16 16 15 15 14 13 12 12 11 10 9 8 8 7 7 6 6 6 6 6 7 7 7 7 8 9 9 10 10 11 11 11 11 12 12 11 12 12 11 12 11 9 6 5 3 3 7 13 18 15 13
26 26 24 24 23 21 20 18 17 18 18 17 16 14 14 14 12 12 12 11 11 10 9 9 7 7 6 5 5 5 5 5 6 6 7 8 9 10 10 10 11 11 11 11 11 12 12 12 12 11 11 12 11 9 7 5 4 6 11 17 17 17
27 26 24 23 23 22 20 19 18 18 18 18 17 15 14 13 12 12 12 11 10 10 10 9 7 6 6 6 6 6 5 5 5 6 7 8 8 8 9 9 10 11 11 11 12 13 13 13 13 12 12 12 12 11 8 7 8 9 11 13 15 18
25 26 25 24 23 22 21 20 19 18 18 17 17 15 15 14 13 13 12 11 10 10 9 8 7 5 4 5 6 6 6 6 6 7 7 7 7 7 7 7 8 9 9 11 12 13 13 13 14 13 13 13 12 11 9 8 8 10 13 13 15 20
24 26 27 26 25 23 21 20 19 18 17 16 15 13 12 12 13 12 11 10 9 8 6 5 4 4 4 4 6 7 7 7 7 7 7 7 7 7 7 7 6 7 8 9 10 12 13 13 13 13 13 12 11 10 9 8 8 9 11 11 14 22
25 27 28 27 26 23 21 20 18 17 16 14 12 10 9 10 11 11 10 8 6 4 3 3 2 2 3 5 5 6 7 7 6 6 5 6 9 9 7 7 6 6 7 7 8 10 11 11 12 13 12 11 11 10 9 8 8 9 10 12 15 21
27 28 28 27 25 22 20 18 17 17 15 13 11 8 7 8 10 10 8 5 3 3 2 2 1 0 2 3 4 4 6 6 6 5 3 3 7 10 8 7 7 7 7 7 8 9 10 11 12 12 11 11 11 11 9 8 8 9 11 13 17 21
26 26 26 26 25 22 19 18 17 15 13 11 9 6 5 7 9 9 7 5 3 3 2 2 1 0 1 1 1 2 3 5 5 5 3 2 5 9 9 8 7 7 7 8 8 9 10 11 11 11 10 11 11 10 9 9 8 9 10 11 15 19
22 22 22 23 23 21 19 18 16 14 12 11 9 7 6 9 9 7 5 4 3 2 2 2 2 1 1 1 1 1 2 3 4 4 4 3 4 6 8 8 8 7 7 8 8 8 9 9 10 10 10 12 12 10 9 9 9 9 9 10 13 17
17 18 20 20 18 17 17 17 15 13 13 11 8 7 7 9 9 7 6 5 3 2 2 2 2 2 1 2 2 3 3 3 4 5 5 4 4 5 7 8 7 7 7 8 8 8 8 8 8 9 11 13 12 10 10 10 10 10 9 10 12 15
Wind_Direction
175 174 174 170 171 171 167 166 161 159 156 156 156 156 157 156 158 154 149 145 142 143 144 146 145 138 131 129 128 128 129 128 131 136 142 155 167 175 178 179 180 181 184 186 191 195 198 203 192 168 147 132 125 117 105 97 90 83 81 80 79 75
176 176 175 173 174 172 170 170 166 164 159 158 160 159 161 160 160 157 151 149 146 145 146 149 143 135 131 131 132 130 130 130 132 134 137 144 156 171 180 184 186 187 188 190 194 197 200 202 196 179 163 149 136 127 117 104 95 89 87 83 79 74
177 177 177 176 176 174 173 170 169 167 163 162 164 164 163 160 158 156 153 151 149 146 144 145 141 137 137 137 136 133 133 133 134 134 138 143 148 160 172 183 189 192 193 195 197 200 204 204 199 186 171 159 146 137 126 110 99 97 95 87 80 73
178 178 179 179 178 178 175 171 170 170 168 167 168 165 164 161 159 157 155 155 155 151 148 147 143 140 140 140 137 132 130 129 134 137 139 145 149 155 164 174 184 193 197 199 200 202 205 205 200 189 176 167 157 148 136 119 108 104 102 92 82 74
179 180 182 181 180 180 176 172 173 174 172 170 169 164 164 165 163 160 160 162 161 156 150 147 144 142 139 136 133 129 130 132 139 144 146 148 155 164 164 167 176 187 197 201 201 202 205 206 202 191 183 177 168 160 148 132 119 110 103 90 80 72
181 182 184 182 182 181 178 175 176 177 175 172 168 164 167 171 169 166 166 164 162 156 147 144 144 143 139 135 135 134 135 137 142 149 155 150 153 161 161 165 174 182 192 199 200 200 202 205 202 195 191 186 176 167 153 136 121 110 100 82 72 65
185 185 185 182 182 183 181 179 178 178 177 175 168 165 169 174 174 171 167 161 156 151 144 144 146 144 140 137 138 141 143 140 139 152 157 145 143 150 154 162 172 179 186 194 197 198 201 204 202 199 198 191 178 165 149 130 118 109 96 78 71 63
190 188 185 183 184 185 184 181 180 179 178 178 171 169 172 176 178 173 168 162 155 150 146 147 150 151 148 145 145 149 150 144 145 160 161 146 143 151 157 161 166 176 183 188 193 197 201 204 201 200 201 195 181 166 148 132 123 114 97 83 75 67
191 188 185 184 186 187 185 184 183 181 179 179 177 177 180 182 183 177 171 165 158 154 154 153 154 157 155 151 151 155 155 152 160 173 170 160 158 163 164 163 165 174 182 184 189 196 202 204 201 198 200 198 191 182 167 149 134 123 106 97 85 73
190 188 187 186 188 189 188 187 185 184 182 180 180 182 185 186 186 181 174 168 161 158 160 158 156 159 158 154 155 162 167 168 178 189 185 177 175 181 183 181 179 179 184 185 187 192 199 205 202 200 201 205 211 210 196 171 143 134 133 123 108 91
190 189 190 189 191 191 190 190 187 187 184 183 184 184 188 190 187 183 177 172 165 163 166 165 161 163 161 158 159 167 177 183 190 194 195 194 188 193 197 198 195 190 191 190 191 191 194 201 200 200 203 211 221 219 210 185 156 151 154 143 124 99
192 192 193 193 193 192 191 191 191 189 186 186 186 186 191 192 188 185 181 176 171 170 172 170 166 166 163 163 168 175 183 191 196 195 197 198 193 192 195 198 200 197 199 198 198 197 195 194 194 196 201 212 220 219 213 185 166 164 162 155 137 125
194 196 197 197 195 192 190 191 193 191 188 189 187 189 194 192 190 189 184 180 177 176 176 179 180 174 168 168 177 185 191 194 196 196 196 195 192 192 194 197 199 201 204 202 202 203 200 196 193 197 201 209 213 213 204 188 179 175 168 160 155 152
197 197 197 199 198 194 191 191 193 191 191 190 188 192 196 193 193 191 185 184 183 182 183 188 189 185 180 177 176 183 192 191 192 198 201 199 195 195 200 197 198 204 207 202 199 201 200 196 194 196 198 204 208 203 196 195 190 184 177 164 162 165
202 198 197 199 197 194 194 193 192 193 192 191 190 195 197 195 194 190 186 187 187 188 190 191 189 190 192 190 184 184 191 188 191 201 209 212 210 207 208 204 199 201 204 200 195 195 193 191 194 192 190 192 191 187 190 196 190 185 185 169 162 166
205 200 197 197 196 193 194 193 192 193 193 192 191 194 197 195 193 191 187 187 188 192 195 196 196 197 199 199 199 205 207 203 205 207 212 218 219 215 210 206 203 196 193 196 193 189 186 185 188 190 185 174 172 179 183 189 191 188 179 164 162 165
209 204 199 196 194 192 192 192 191 191 192 193 191 193 196 195 194 191 187 187 190 198 202 204 208 207 205 206 210 217 221 222 222 216 212 214 220 216 204 199 203 196 184 187 193 188 182 181 182 184 180 165 170 176 177 184 187 179 167 160 166 170
211 206 200 195 192 191 191 189 188 189 189 190 192 195 195 194 195 193 191 195 199 205 209 212 214 211 209 212 216 218 221 226 223 215 209 209 215 210 198 192 194 195 183 174 183 183 179 180 180 182 173 159 168 170 169 179 176 166 165 162 170 173
209 205 198 193 192 191 190 187 185 186 186 188 192 193 191 190 190 192 196 200 202 209 215 219 216 211 212 212 215 219 218 221 216 211 209 207 208 201 195 191 183 187 183 166 169 180 184 184 183 184 171 156 160 158 155 161 160 163 168 166 170 167
203 200 194 191 192 191 188 186 184 185 185 187 189 187 184 184 185 190 198 201 206 212 215 219 213 208 212 209 213 218 213 210 209 210 212 205 201 196 193 191 179 179 181 169 167 180 191 194 189 182 169 155 154 152 144 145 161 169 172 173 167 157
198 194 191 190 191 190 187 185 185 186 185 186 186 184 181 183 187 193 197 200 204 205 205 208 206 205 210 210 215 220 211 206 208 210 210 205 200 196 191 190 180 174 179 177 172 180 193 202 197 183 170 159 152 147 136 143 174 177 178 179 164 154
195 191 189 188 189 189 188 188 188 186 184 183 183 181 180 184 190 193 194 193 192 190 191 195 199 203 206 207 210 219 215 208 208 210 210 208 200 193 192 191 184 176 179 182 179 184 192 199 203 200 186 164 149 141 134 152 179 179 180 182 169 164
194 190 185 185 188 188 190 190 188 185 182 179 179 179 179 184 188 189 189 186 181 179 182 186 190 195 199 200 199 204 208 201 201 204 203 205 196 190 190 189 186 180 180 183 185 189 192 196 204 206 195 169 153 145 138 160 182 181 184 185 174 168
190 189 185 184 186 188 190 187 182 181 179 178 180 181 180 184 186 185 183 180 177 175 178 182 186 191 192 192 187 185 187 185 187 189 189 194 194 192 193 190 187 183 183 188 190 191 192 196 203 202 195 177 164 155 144 168 182 173 187 187 160 156
187 189 186 185 186 188 189 183 179 179 180 180 181 184 184 183 181 177 175 175 176 177 180 183 182 184 182 179 177 175 176 176 177 181 182 185 187 191 194 194 193 186 185 192 197 198 195 195 200 205 209 192 172 166 163 179 175 148 153 139 128 140
187 190 187 187 188 188 186 183 183 183 185 183 181 184 183 178 173 170 171 173 176 179 181 181 179 178 176 176 179 182 184 177 175 179 182 186 185 187 192 195 197 193 189 190 199 207 204 202 201 205 214 205 176 169 170 182 171 142 118 95 110 126
190 191 188 188 188 187 185 183 185 189 190 185 183 181 172 164 165 167 169 171 174 178 179 179 178 178 178 182 189 196 195 183 178 180 184 191 192 191 192 194 200 202 200 198 198 205 209 209 208 207 212 212 208 215 201 202 181 156 131 108 114 131
193 191 188 188 188 187 186 184 185 189 190 184 182 177 164 160 164 165 167 168 174 178 178 179 176 177 180 186 193 197 197 192 187 185 184 189 195 199 196 197 204 208 210 210 204 203 209 213 213 214 215 219 227 236 248 260 212 179 150 130 132 144
196 192 189 188 188 188 187 185 185 189 187 180 180 177 168 166 167 167 169 171 176 180 180 179 178 184 194 206 211 205 203 202 196 193 192 192 197 205 206 207 215 217 217 219 213 207 209 213 218 226 228 231 235 235 239 233 208 206 177 149 147 154
200 194 190 190 191 190 187 185 187 190 185 179 179 178 175 173 171 173 176 176 178 179 178 177 178 188 200 214 222 217 214 212 203 199 199 197 195 202 209 213 220 223 222 223 220 214 213 214 216 226 234 238 240 236 234 228 210 198 187 174 165 158
203 196 191 192 194 192 188 185 188 189 183 180 181 178 178 177 175 179 180 180 181 180 178 174 171 165 165 192 206 208 211 208 205 203 201 196 187 187 200 210 217 221 222 223 221 218 218 218 217 220 226 233 240 242 246 253 240 203 189 188 171 155
204 199 194 194 194 192 188 187 188 187 181 180 179 175 177 177 175 179 181 183 184 180 174 165 154 133 124 156 184 197 205 200 196 200 204 206 200 192 194 203 214 218 220 222 220 219 220 221 223 223 223 227 234 242 250 263 257 217 199 203 177 158
205 200 195 193 193 191 188 186 188 185 178 177 178 173 175 176 174 177 179 181 180 171 162 154 137 108 110 131 158 182 198 200 199 200 207 217 212 204 197 200 209 212 213 217 218 223 225 225 229 231 229 229 229 229 233 242 242 220 204 201 182 163
210 204 197 192 190 188 185 185 187 183 174 174 177 175 179 182 178 174 170 164 153 134 125 121 84 63 118 124 135 154 176 192 208 215 223 228 212 204 199 199 206 209 211 214 215 218 222 223 226 229 229 227 219 213 214 221 225 218 208 198 183 168
214 208 199 191 188 186 182 183 186 180 174 177 180 182 190 189 183 174 160 144 140 128 99 86 72 79 124 123 131 139 156 181 205 222 240 252 217 206 201 199 203 211 216 216 215 214 215 220 223 224 223 214 204 201 204 209 211 213 215 208 194 180
210 204 199 190 186 184 178 180 186 183 181 184 187 193 195 191 187 172 152 151 153 136 102 87 78 63 8 295 251 216 191 198 211 227 245 261 244 220 208 203 203 210 216 218 219 217 215 219 221 219 212 201 194 192 191 195 199 202 207 212 205 193
206 199 196 187 181 182 180 181 188 188 185 183 188 198 196 192 187 169 162 173 173 158 129 86 64 50 349 288 255 232 220 222 226 233 240 246 251 240 221 211 208 208 211 213 214 215 215 218 221 213 199 191 187 184 184 186 189 189 192 203 204 196